{"data":{"norad_id":45229,"epoch":"2026-09-20T03:06:42.344928Z","epoch_age_seconds":46309,"freshness":"FRESH","line1":"1 45229U 20012BD  26263.12965677  .00058731  00000+0  83881-3 0  9993","line2":"2 45229  53.1486 155.4514 0002642 137.0968 223.0250 15.55716742365465","mean_motion":15.55716742,"eccentricity":0.0002642,"inclination_deg":53.1486,"raan_deg":155.4514,"arg_perigee_deg":137.0968,"mean_anomaly_deg":223.025,"bstar":0.00083881,"rev_number":36546,"period_min":92.561837327068,"perigee_km":398.27914650835,"apogee_km":401.86075106009,"semimajor_km":6778.2069487842,"source":"CELESTRAK","updated_at":"2026-09-20T09:00:38.228986Z"}}